SCP
0 0 0 0 0 0 0 0 0 0 0 0 0 0 0 0 0 0 0 0 0 0 -0 -0 -0 -0 -0 0 -0 0 -0 0 0 0 0 -0 0 0 0 0 0 0 0 1 1 0 0 0 0 0 1 1 0 0
0 0 0 0 0 0 0 0 0 0 0 0 0 0 0 0 0 0 0 0 0 0 0 -0 -0 -0 -0 -0 0 0 -0 0 0 0 0 0 -0 -0 0 0 0 0 0 0 0 1 1 0 0 1 1 0 0 0
0 0 0 0 0 0 0 0 0 0 0 0 0 0 0 0 0 0 0 0 0 0 0 0 0 0 -0 -0 -0 0 -0 0 0 0 0 0 -0 -0 0 0 0 0 0 0 0 0 0 0 0 0 0 0 0 0
0 0 0 0 0 0 0 0 0 0 0 0 0 0 0 0 0 -0 0 -0 0 -0 0 0 0 0 -0 -0 -0 -0 0 -0 0 0 0 0 0 0 -0 0 0 0 0 0 0 0 0 0 0 0 0 0 0 0
0 0 0 0 0 0 0 0 0 0 0 0 0 0 0 0 0 -0 -0 0 0 -0 0 -0 -0 0 0 0 0 0 -0 0 -0 0 0 0 0 -0 -0 0 0 0 0 0 0 0 0 0 0 0 0 0 0 0
0 0 0 0 0 0 0 0 0 0 0 0 0 0 0 0 0 0 0 0 0 0 -0 0 -0 0 0 -0 0 -0 0 0 0 0 0 -0 -0 -0 -0 0 -0 0 0 0 0 0 0 0 0 0 0 1 1 0
0 0 0 0 0 0 0 0 0 0 0 0 0 0 0 0 0 0 0 0 -0 0 0 0 0 0 0 -0 -0 -0 0 0 0 0 -0 0 -0 -0 0 -0 0 0 0 0 0 0 0 0 0 0 0 0 0 0
0 0 0 0 0 0 0 0 0 0 0 0 0 0 0 0 0 0 0 0 0 0 0 0 0 0 0 0 0 -0 0 -0 -0 -0 0 0 0 -0 0 0 -0 -0 -0 0 0 0 0 0 0 0 0 0 0 0
0 0 0 0 0 0 0 0 0 0 0 0 0 0 0 0 0 0 0 0 0 0 0 0 0 0 0 0 0 0 0 0 -0 -0 -0 -0 -0 0 -0 -0 -0 0 -0 -0 -0 -0 0 0 0 0 0 0 0 0
0 0 0 0 0 0 0 0 0 0 -0 0 0 0 0 0 0 0 0 0 0 0 0 0 0 0 0 0 0 0 0 0 0 -0 0 -0 0 0 0 0 0 0 -0 -0 0 -0 0 0 0 0 0 0 0 0
0 0 0 0 0 0 0 0 0 -0 0 0 0 0 0 0 0 0 0 0 0 0 0 0 -0 0 0 0 0 0 0 -0 0 -0 -0 0 -0 -0 0 0 -0 -0 0 0 0 0 -0 -0 0 0 0 0 0 0
0 0 0 0 0 0 0 0 0 0 0 0 0 0 0 0 0 0 0 0 0 -0 -0 -0 -0 -0 0 0 0 0 0 0 0 -0 -0 -0 -0 -0 -0 0 0 -0 0 0 0 0 0 0 0 0 0 0 0 0
0 0 0 0 0 0 0 0 0 0 0 0 0 0 0 0 0 0 0 -0 -0 0 0 0 0 0 0 0 0 0 0 0 -0 0 0 0 -0 -0 -0 -0 0 -0 0 0 0 0 0 0 0 0 0 0 0 0
0 0 0 0 0 0 0 0 0 0 0 0 0 0 0 0 0 0 0 0 0 0 0 0 0 0 0 0 0 0 0 0 0 0 -0 0 -0 -0 -0 0 0 0 0 1 0 0 0 0 0 0 0 0 0 0
0 0 0 0 -0 -0 0 0 0 0 0 0 0 0 0 0 0 -0 0 -0 -0 0 0 0 0 0 0 0 0 0 0 0 0 0 0 0 0 -0 -0 0 -0 -0 0 0 0 0 0 0 0 0 0 0 0 0
0 0 0 -0 -0 0 0 0 0 0 0 0 0 0 0 0 0 0 -0 -0 -0 -0 0 0 0 0 0 0 0 0 0 0 0 0 0 0 0 0 -0 -0 0 -0 -0 -0 0 0 0 0 -0 -0 0 0 0 0
-0 0 -0 -0 0 0 0 0 0 0 0 0 0 0 0 0 -0 0 0 0 -0 -0 -0 0 -0 -0 0 0 0 0 0 0 0 0 0 0 0 0 0 0 0 0 0 -0 -0 0 0 0 0 0 1 1 1 1
0 0 0 0 0 0 0 0 0 0 0 0 0 0 0 0 0 -0 -0 0 -0 -0 -0 -0 0 -0 -0 -0 0 0 0 0 0 0 0 0 0 0 0 -0 0 -0 -0 -0 0 0 0 0 0 0 1 0 0 1
0 0 0 0 0 0 0 0 0 0 0 -0 0 -0 0 0 0 -0 -0 -0 0 0 -0 -0 -0 -0 -0 0 0 -0 0 0 0 0 -0 -0 -0 0 0 0 -0 0 0 0 0 0 0 0 0 0 0 0 0 0
0 0 0 0 0 0 0 0 0 0 0 0 -0 0 0 0 0 0 -0 -0 -0 -0 0 0 -0 -0 -0 -0 -0 -0 -0 0 0 -0 -0 -0 -0 0 0 0 0 -0 -0 0 0 0 0 0 0 0 0 0 0 0
0 0 0 0 0 0 0 0 0 0 0 0 0 0 -0 0 -0 -0 0 0 0 0 0 -0 0 -0 -0 -0 0 -0 -0 -0 0 -0 -0 -0 -0 -0 0 -0 0 -0 -0 -0 -0 -0 0 0 0 0 0 0 0 0
0 0 0 0 0 0 0 0 0 0 0 0 0 0 0 0 0 0 0 0 0 0 0 0 0 0 0 0 0 -0 0 -0 0 -0 0 0 0 0 -0 -0 0 -0 -0 0 0 -0 0 0 0 0 0 0 0 0
0 0 0 0 0 0 0 0 0 0 0 0 0 0 0 0 -0 0 0 0 0 0 0 0 0 0 0 0 -0 0 0 -0 -0 0 0 0 0 0 0 0 -0 -0 -0 -0 -0 0 -0 0 0 0 0 0 0 0
0 0 0 0 0 0 0 0 0 0 0 0 0 0 0 0 0 0 0 0 0 0 0 0 0 0 0 0 0 0 0 0 0 0 0 0 0 0 0 0 0 0 -0 -0 -0 -0 -0 0 -0 -0 -0 -0 0 0
0 0 0 0 0 0 0 0 0 0 0 0 0 0 0 0 0 0 -0 -0 0 0 0 0 0 0 0 0 0 0 0 0 0 0 0 0 -0 -0 0 -0 0 0 0 -0 0 0 0 0 0 -0 -0 -0 -0 -0
0 0 0 0 0 0 0 0 0 0 0 0 0 0 0 0 0 0 0 0 0 0 0 0 0 0 0 0 0 0 0 0 0 0 0 0 0 0 0 0 0 0 0 0 0 0 0 0 0 0 0 0 0 0
0 0 0 0 0 0 0 0 0 0 0 0 0 0 0 0 0 0 0 0 0 0 0 0 0 0 0 0 0 0 0 0 0 0 0 0 0 0 0 0 0 0 0 0 0 0 0 0 0 0 0 0 0 0
0 0 0 0 0 0 0 0 0 0 0 0 0 0 0 0 0 0 0 0 0 0 0 0 0 0 0 0 0 0 0 0 0 0 0 0 0 0 0 0 0 0 0 0 0 0 0 0 0 0 0 0 0 0
0 0 0 0 0 0 0 0 0 0 0 0 0 0 0 0 0 0 0 0 0 0 0 0 0 0 0 0 0 0 0 0 0 0 0 0 0 0 0 0 0 0 0 0 0 0 0 0 0 0 0 0 0 0
0 0 0 0 0 0 0 0 0 0 0 0 0 0 0 0 0 0 0 0 0 0 0 0 0 0 0 0 0 0 0 0 0 0 0 0 0 0 0 0 0 0 0 0 0 0 0 0 0 0 0 0 0 0
0 0 0 0 0 0 0 0 0 0 0 0 0 0 0 0 0 0 0 0 0 0 0 0 0 0 0 0 0 0 0 0 0 0 0 0 0 0 0 0 0 0 0 0 0 0 0 0 0 0 0 0 0 0
0 0 0 0 0 0 0 0 0 0 0 0 0 0 0 0 0 0 0 0 0 0 0 0 0 0 0 0 0 0 0 0 0 0 0 0 0 0 0 0 0 0 0 0 0 0 0 0 0 0 0 0 0 0
0 0 0 0 0 0 0 0 0 0 0 0 0 0 0 0 0 0 0 0 0 0 0 0 0 0 0 0 0 0 0 0 0 0 0 0 0 0 0 0 0 0 0 0 0 0 0 0 0 0 0 0 0 0
Wind_Speed_500mb
57 55 53 52 51 55 57 58 60 61 59 52 42 38 28 25 21 19 26 25 18 13 53 40 31 24 28 20 6 23 21 17 12 15 12 11 11 13 17 30 19 30 31 25 30 29 26 27 38 44 15 19 17 46
56 54 53 52 52 56 59 62 63 62 58 51 39 33 28 26 23 30 28 30 22 28 47 57 49 37 34 30 12 14 17 19 15 9 5 6 13 2 19 9 25 15 11 20 19 23 10 33 19 31 35 25 26 49
56 56 55 56 57 58 60 63 64 63 59 49 39 33 29 28 26 28 36 35 31 24 50 20 23 23 17 20 21 10 8 16 15 17 10 5 7 5 4 8 20 16 22 11 20 26 27 31 32 31 39 32 33 33
57 58 59 59 60 60 62 63 66 67 64 55 42 35 32 30 30 31 32 29 24 21 12 21 15 9 16 14 24 19 17 20 29 26 8 6 3 21 13 17 19 20 22 26 26 29 20 21 25 30 43 28 35 29
57 61 63 62 62 62 64 65 70 72 66 55 46 38 33 30 28 28 31 20 13 17 12 36 37 16 12 16 21 23 22 21 28 18 10 14 16 6 11 9 18 18 7 8 8 41 29 30 16 59 37 28 19 43
60 65 67 64 63 63 64 68 74 74 65 56 49 41 32 24 21 19 8 1 14 24 15 10 20 17 23 18 22 26 27 31 31 32 20 5 18 4 4 15 14 21 47 28 29 42 55 72 15 12 66 15 11 15
62 67 70 66 63 64 65 74 77 72 66 60 43 28 20 16 12 12 10 18 30 23 7 10 9 11 26 21 28 30 29 34 36 34 26 28 25 15 11 23 27 25 45 35 41 53 46 62 18 13 57 23 18 21
65 67 70 68 64 63 68 77 78 66 64 45 29 17 9 7 7 11 13 16 30 11 9 7 9 11 14 13 14 15 20 25 26 36 40 20 29 28 21 29 38 41 45 41 38 51 49 73 74 1 21 17 38 24
66 66 70 70 64 60 71 77 72 64 57 34 14 13 10 9 6 10 34 22 4 10 9 7 6 6 14 12 10 9 6 6 15 19 21 23 21 22 28 38 49 40 35 47 41 52 63 65 55 28 30 21 3 3
67 67 70 71 62 55 71 75 64 59 47 30 22 7 6 11 35 12 6 3 8 9 12 10 5 8 11 3 7 8 10 6 5 15 28 21 25 51 64 56 52 42 40 41 45 39 46 49 52 55 37 29 17 12
68 66 67 66 53 59 66 69 60 57 35 23 15 9 22 18 8 5 7 7 7 7 10 14 20 16 11 6 4 6 7 7 6 6 6 8 22 27 61 66 58 54 53 44 40 44 53 41 48 42 43 31 27 22
67 65 64 58 55 60 66 64 55 48 23 19 18 17 15 8 4 8 10 5 4 10 20 22 38 40 2 8 3 3 4 6 9 21 5 7 16 47 36 47 61 59 60 49 42 44 33 37 46 45 36 30 33 38
65 63 62 52 56 63 65 58 44 36 26 12 10 8 13 9 12 13 14 9 10 22 29 47 25 19 3 3 2 2 5 7 18 6 6 7 31 48 42 46 18 46 55 54 48 46 41 45 44 52 54 50 42 33
65 62 56 43 62 68 63 46 38 25 15 8 12 11 9 7 6 6 13 13 18 19 43 39 17 5 7 1 1 5 3 5 5 7 10 9 41 48 43 34 28 30 34 27 39 54 54 50 52 53 57 62 51 54
68 59 34 49 68 58 53 34 21 15 9 7 8 7 6 10 26 16 24 31 29 35 24 18 3 11 9 7 7 7 13 9 8 8 9 24 45 36 45 41 41 28 22 16 18 31 40 56 58 62 63 68 73 72
67 56 23 58 57 53 44 29 9 10 8 6 5 8 25 21 25 28 32 37 44 39 32 18 9 9 9 9 8 8 17 8 8 7 43 30 4 23 38 49 43 47 39 10 12 22 47 62 76 69 69 78 90 87
63 37 58 60 59 53 23 20 10 6 6 6 8 10 17 24 28 35 34 36 37 28 11 8 11 10 6 9 10 7 8 10 33 45 40 9 13 16 20 24 28 63 58 39 22 19 24 44 61 76 43 24 27 46
59 61 55 52 53 54 18 8 7 7 9 11 7 17 19 19 19 25 28 33 27 34 26 6 3 9 7 9 7 4 12 26 39 52 47 20 19 14 26 30 38 34 52 54 42 58 43 48 26 42 44 28 15 41
61 59 48 34 43 39 10 6 4 8 10 19 21 17 24 18 18 18 23 25 22 27 14 10 8 7 3 7 13 23 23 17 21 36 48 43 35 41 28 27 33 43 47 43 59 67 56 43 54 45 43 40 33 31
53 48 24 30 29 9 11 10 7 11 10 19 28 17 25 19 22 15 13 18 21 18 13 7 7 17 19 12 17 23 27 33 23 29 23 33 21 28 36 41 36 36 45 44 47 56 46 41 49 49 41 40 43 40
51 14 25 20 15 20 13 15 13 12 12 13 24 23 20 19 25 21 14 8 12 2 4 11 17 19 17 6 4 30 26 28 31 32 32 35 38 44 44 43 35 40 41 45 46 41 39 34 29 32 40 41 36 26
40 28 35 9 10 12 16 20 14 14 19 28 28 23 17 14 27 21 16 6 11 6 9 17 18 22 25 28 16 12 19 24 23 26 32 32 34 37 39 45 44 43 45 43 39 44 40 36 39 37 37 30 33 34
20 17 14 11 12 10 16 19 17 25 8 10 12 11 11 12 21 19 4 8 15 6 6 9 17 20 23 26 32 28 21 19 17 23 22 27 29 28 30 32 36 37 43 40 39 44 39 46 43 39 36 35 36 32
19 10 10 11 20 11 16 18 15 9 10 8 8 16 17 24 27 12 15 21 14 10 5 5 18 15 13 13 18 20 23 27 28 23 22 22 21 26 26 26 28 39 35 39 36 38 39 36 29 29 36 34 31 29
12 13 12 13 14 15 10 10 20 13 13 13 19 16 12 24 7 16 23 26 9 21 6 5 16 19 16 16 10 11 19 21 20 18 22 23 17 14 19 20 25 29 30 29 34 35 38 36 35 33 31 35 39 43
13 14 15 16 11 13 13 8 12 19 20 18 9 8 7 7 15 14 16 14 14 4 5 6 7 15 18 18 19 17 16 20 21 18 16 21 19 19 18 18 19 22 25 26 28 34 31 30 31 28 30 35 38 34
12 14 23 28 32 21 11 19 23 9 8 7 9 15 6 8 10 10 12 4 1 5 8 10 10 15 12 17 19 19 19 20 16 11 13 12 11 10 13 13 12 10 18 17 21 25 30 32 30 28 27 25 28 32
24 16 24 34 30 35 27 21 16 12 11 19 19 13 9 11 9 14 9 4 13 12 17 21 24 27 25 15 11 19 23 21 21 18 16 12 6 5 4 5 10 18 18 23 21 15 18 24 24 29 22 21 21 18
22 24 30 27 42 32 37 24 28 30 27 27 16 17 26 35 31 25 20 20 23 28 27 28 25 22 22 25 15 11 15 19 18 17 15 7 13 8 10 7 9 10 10 16 22 21 15 15 13 16 16 17 18 19
31 39 31 37 34 32 40 28 29 34 37 41 39 32 28 28 27 21 24 26 27 28 26 22 23 28 32 31 18 14 14 3 5 8 12 9 6 4 6 9 10 10 10 9 8 11 13 12 12 16 15 13 12 14
22 28 38 39 31 33 37 37 39 39 37 34 29 29 30 34 32 30 29 29 24 21 18 21 20 20 13 15 11 4 6 1 5 6 11 5 9 9 11 12 11 10 9 8 8 9 6 8 9 10 13 14 14 12
30 40 30 26 26 36 32 35 37 39 42 39 42 41 42 36 27 24 10 12 15 20 16 13 7 6 5 4 2 2 6 6 7 10 9 12 12 11 6 9 8 6 5 4 7 8 8 8 9 7 6 9 11 13
31 35 32 26 21 25 26 30 31 34 35 26 33 40 45 42 32 6 8 2 6 7 9 8 8 9 8 7 6 9 13 20 18 18 16 15 13 8 9 9 6 4 6 8 8 10 12 14 15 14 11 10 10 10
Wind_Direction_500mb
353 357 359 359 358 358 357 354 351 349 350 350 350 355 359 3 353 338 320 290 280 275 290 286 288 281 284 310 323 317 314 239 237 239 198 189 251 349 305 300 309 227 181 207 212 228 219 231 217 217 157 226 230 197
349 351 354 354 354 354 351 349 349 349 350 350 344 344 341 345 341 336 326 333 307 265 275 290 282 275 278 255 258 291 354 346 13 289 217 298 242 152 340 298 253 293 176 226 227 216 252 239 289 161 162 219 234 195
346 345 347 346 345 347 347 347 347 346 345 344 341 331 325 322 328 331 321 332 325 288 304 303 281 252 232 217 235 300 17 318 325 355 328 311 316 223 211 287 325 279 2 315 338 262 231 244 260 166 174 199 187 182
345 343 343 342 340 343 344 343 345 344 340 335 332 326 321 318 306 318 316 316 325 309 286 315 317 293 232 232 235 262 281 296 301 294 283 290 275 315 286 257 275 306 341 327 311 281 311 229 334 163 179 190 177 173
346 343 341 341 339 340 341 342 344 344 339 331 325 320 312 309 318 316 315 298 329 338 306 304 303 305 303 280 266 264 271 277 285 276 231 267 269 216 246 288 267 275 325 301 339 335 328 281 346 323 202 190 177 178
345 343 341 342 342 340 341 342 343 344 339 331 325 319 312 301 308 336 311 41 360 332 314 312 321 332 337 303 279 273 265 265 277 279 284 297 281 293 307 266 252 272 271 264 284 302 314 318 30 304 304 91 161 182
343 342 340 341 342 341 341 342 344 346 341 336 335 331 325 308 299 272 273 303 308 326 269 284 296 321 333 303 292 288 277 260 248 258 267 276 252 212 257 272 285 297 280 255 271 295 296 300 275 231 306 122 126 105
342 340 338 338 340 341 340 342 345 347 345 347 356 360 18 7 303 299 290 312 322 292 265 280 287 324 353 333 316 323 290 277 262 263 262 259 257 238 236 256 265 262 260 269 277 271 259 278 295 115 275 255 149 235
343 341 338 337 339 340 340 341 346 350 349 352 5 358 11 13 293 325 300 310 265 259 299 254 273 295 324 357 298 278 262 271 269 247 245 256 253 237 239 238 242 256 260 252 246 257 260 246 259 262 256 268 319 301
343 341 338 337 339 342 341 342 348 352 357 9 355 287 318 334 307 339 305 201 228 227 230 265 277 282 288 322 293 286 221 262 262 257 257 241 249 259 261 256 259 262 241 228 246 244 269 269 264 236 256 270 270 270
342 342 340 338 339 344 343 344 351 353 1 353 339 322 312 324 320 291 283 245 219 243 231 298 319 304 272 237 248 301 313 300 266 285 293 234 246 248 244 251 247 245 257 246 234 240 236 248 257 274 252 265 266 256
339 342 339 336 337 345 347 346 348 359 347 342 328 315 321 298 278 294 305 288 282 341 337 337 332 327 338 173 178 268 282 275 264 342 248 255 9 357 341 322 234 238 246 244 230 228 253 256 260 273 275 263 269 263
336 341 337 332 338 344 346 343 345 350 348 331 333 310 337 313 16 347 330 350 334 323 321 327 324 321 20 108 164 234 248 258 330 275 263 68 338 334 338 327 296 225 232 243 242 237 227 241 246 259 272 275 274 274
333 339 335 335 340 340 338 338 341 1 357 331 325 332 5 359 292 309 311 318 291 278 312 319 307 310 303 30 225 289 299 278 283 309 345 329 332 337 331 334 327 322 300 287 245 245 243 238 238 243 239 255 266 271
332 338 323 335 329 332 334 337 348 8 331 319 338 343 356 292 305 359 349 353 351 346 340 343 354 338 21 5 15 329 337 340 352 313 298 300 331 338 1 12 21 16 350 307 267 258 259 243 235 240 236 235 240 244
330 339 315 323 329 339 333 337 343 322 312 305 336 323 340 2 340 4 355 354 351 357 11 22 11 5 14 345 343 14 326 331 299 293 305 335 20 42 48 40 32 21 22 351 292 291 256 243 234 234 229 233 234 238
327 324 328 334 328 337 326 339 319 274 271 295 286 325 305 332 9 341 358 356 349 350 30 38 19 358 346 337 345 2 334 293 304 336 345 346 43 32 13 6 7 30 28 36 23 345 296 239 236 234 202 202 215 110
319 326 329 331 329 338 343 273 290 264 265 274 281 315 333 333 332 348 357 1 351 345 1 57 94 17 18 341 319 301 278 315 342 346 352 45 51 37 36 28 33 33 25 31 8 41 70 60 76 109 98 128 49 88
318 321 322 328 334 328 292 269 265 281 280 315 295 321 317 321 323 323 344 352 357 349 3 16 14 359 358 247 338 348 330 332 344 13 13 23 34 46 43 36 46 39 35 24 27 41 49 36 64 77 79 83 82 71
319 320 316 335 326 299 277 260 234 247 262 288 301 293 297 313 311 322 317 348 1 11 22 12 352 328 352 7 360 339 336 333 2 8 29 22 28 42 44 50 52 43 40 38 43 39 37 42 47 56 70 80 81 80
325 310 308 333 288 243 277 276 263 272 270 263 285 299 307 315 306 309 327 30 352 354 15 317 8 335 346 337 71 5 345 351 3 31 14 18 37 43 29 40 37 42 45 48 47 46 46 44 56 68 58 63 67 71
315 298 309 310 252 250 248 246 243 279 279 266 275 283 290 302 282 285 305 311 173 258 333 334 338 339 356 352 355 344 356 354 8 12 17 34 33 30 42 38 30 38 42 37 35 50 44 46 51 57 60 69 76 71
332 315 286 240 238 249 258 246 248 247 258 283 325 316 283 275 293 298 306 270 232 250 274 328 320 348 337 311 327 353 3 355 353 1 22 18 23 39 37 32 37 35 32 40 37 42 40 38 49 55 63 68 70 73
298 266 247 233 213 240 242 231 226 236 264 258 260 265 281 280 285 282 276 260 267 205 250 332 317 320 337 342 355 334 5 0 349 350 6 30 0 19 44 43 31 30 40 32 34 33 41 49 49 57 60 62 69 76
268 243 229 245 247 229 232 230 223 229 235 243 259 262 273 283 282 284 291 286 165 266 167 42 322 318 326 330 344 328 326 346 9 329 344 6 37 2 40 32 41 34 28 35 32 32 51 47 42 46 44 49 50 53
233 232 213 218 225 211 206 214 210 230 236 234 242 251 262 280 264 263 263 259 172 312 336 31 343 324 311 321 347 325 328 339 344 349 344 350 4 2 359 9 20 24 14 17 25 39 41 50 46 48 42 46 44 53
241 241 225 232 243 231 230 238 239 251 232 236 236 238 251 248 251 263 72 118 153 263 326 336 309 285 292 298 297 316 316 312 320 333 327 333 347 353 2 13 20 24 17 22 23 33 33 42 54 57 57 53 46 45
234 245 230 233 235 248 247 243 234 229 235 228 228 201 200 207 233 282 334 259 249 270 295 299 293 288 287 263 272 301 305 299 297 288 283 290 316 333 28 32 42 38 27 29 39 31 42 45 50 48 59 59 59 48
229 230 235 237 242 236 231 233 231 228 239 245 216 216 245 256 269 280 268 258 268 281 284 280 284 291 286 259 248 258 287 304 313 324 331 338 282 348 10 23 34 36 32 355 3 13 20 36 55 44 44 58 58 46
242 231 240 240 246 228 226 216 237 242 245 246 251 255 254 252 257 271 275 272 270 274 281 283 291 298 293 296 259 248 224 343 329 349 16 29 55 27 353 351 7 17 15 10 2 359 21 34 20 30 23 20 17 22
239 220 223 231 242 230 232 250 261 251 245 250 252 259 259 263 263 261 262 267 270 275 271 283 303 310 324 313 293 235 156 106 34 359 249 314 348 351 353 359 352 359 3 12 10 13 9 27 30 59 55 47 37 26
234 232 225 217 226 237 248 259 264 253 244 239 238 248 260 265 271 297 309 271 253 274 287 275 315 7 68 87 80 112 160 127 214 270 247 224 221 265 287 357 343 353 2 17 30 50 63 64 65 47 60 59 59 57
246 256 245 249 257 251 242 242 248 261 267 273 273 274 276 280 281 133 147 114 156 84 43 86 111 126 143 141 165 171 199 231 268 289 283 279 279 253 184 200 100 59 92 101 97 93 89 89 91 90 86 84 75 60
Wind_Speed_850mb
57 55 53 52 51 55 57 58 60 61 59 52 42 38 28 25 21 19 26 25 18 13 53 40 31 24 28 20 6 23 21 17 12 15 12 11 11 13 17 30 19 30 31 25 30 29 26 27 38 44 15 19 17 46
56 54 53 52 52 56 59 62 63 62 58 51 39 33 28 26 23 30 28 30 22 28 47 57 49 37 34 30 12 14 17 19 15 9 5 6 13 2 19 9 25 15 11 20 19 23 10 33 19 31 35 25 26 49
56 56 55 56 57 58 60 63 64 63 59 49 39 33 29 28 26 28 36 35 31 24 50 20 23 23 17 20 21 10 8 16 15 17 10 5 7 5 4 8 20 16 22 11 20 26 27 31 32 31 39 32 33 33
57 58 59 59 60 60 62 63 66 67 64 55 42 35 32 30 30 31 32 29 24 21 12 21 15 9 16 14 24 19 17 20 29 26 8 6 3 21 13 17 19 20 22 26 26 29 20 21 25 30 43 28 35 29
57 61 63 62 62 62 64 65 70 72 66 55 46 38 33 30 28 28 31 20 13 17 12 36 37 16 12 16 21 23 22 21 28 18 10 14 16 6 11 9 18 18 7 8 8 41 29 30 16 59 37 28 19 43
60 65 67 64 63 63 64 68 74 74 65 56 49 41 32 24 21 19 8 1 14 24 15 10 20 17 23 18 22 26 27 31 31 32 20 5 18 4 4 15 14 21 47 28 29 42 55 72 15 12 66 15 11 15
62 67 70 66 63 64 65 74 77 72 66 60 43 28 20 16 12 12 10 18 30 23 7 10 9 11 26 21 28 30 29 34 36 34 26 28 25 15 11 23 27 25 45 35 41 53 46 62 18 13 57 23 18 21
65 67 70 68 64 63 68 77 78 66 64 45 29 17 9 7 7 11 13 16 30 11 9 7 9 11 14 13 14 15 20 25 26 36 40 20 29 28 21 29 38 41 45 41 38 51 49 73 74 1 21 17 38 24
66 66 70 70 64 60 71 77 72 64 57 34 14 13 10 9 6 10 34 22 4 10 9 7 6 6 14 12 10 9 6 6 15 19 21 23 21 22 28 38 49 40 35 47 41 52 63 65 55 28 30 21 3 3
67 67 70 71 62 55 71 75 64 59 47 30 22 7 6 11 35 12 6 3 8 9 12 10 5 8 11 3 7 8 10 6 5 15 28 21 25 51 64 56 52 42 40 41 45 39 46 49 52 55 37 29 17 12
68 66 67 66 53 59 66 69 60 57 35 23 15 9 22 18 8 5 7 7 7 7 10 14 20 16 11 6 4 6 7 7 6 6 6 8 22 27 61 66 58 54 53 44 40 44 53 41 48 42 43 31 27 22
67 65 64 58 55 60 66 64 55 48 23 19 18 17 15 8 4 8 10 5 4 10 20 22 38 40 2 8 3 3 4 6 9 21 5 7 16 47 36 47 61 59 60 49 42 44 33 37 46 45 36 30 33 38
65 63 62 52 56 63 65 58 44 36 26 12 10 8 13 9 12 13 14 9 10 22 29 47 25 19 3 3 2 2 5 7 18 6 6 7 31 48 42 46 18 46 55 54 48 46 41 45 44 52 54 50 42 33
65 62 56 43 62 68 63 46 38 25 15 8 12 11 9 7 6 6 13 13 18 19 43 39 17 5 7 1 1 5 3 5 5 7 10 9 41 48 43 34 28 30 34 27 39 54 54 50 52 53 57 62 51 54
68 59 34 49 68 58 53 34 21 15 9 7 8 7 6 10 26 16 24 31 29 35 24 18 3 11 9 7 7 7 13 9 8 8 9 24 45 36 45 41 41 28 22 16 18 31 40 56 58 62 63 68 73 72
67 56 23 58 57 53 44 29 9 10 8 6 5 8 25 21 25 28 32 37 44 39 32 18 9 9 9 9 8 8 17 8 8 7 43 30 4 23 38 49 43 47 39 10 12 22 47 62 76 69 69 78 90 87
63 37 58 60 59 53 23 20 10 6 6 6 8 10 17 24 28 35 34 36 37 28 11 8 11 10 6 9 10 7 8 10 33 45 40 9 13 16 20 24 28 63 58 39 22 19 24 44 61 76 43 24 27 46
59 61 55 52 53 54 18 8 7 7 9 11 7 17 19 19 19 25 28 33 27 34 26 6 3 9 7 9 7 4 12 26 39 52 47 20 19 14 26 30 38 34 52 54 42 58 43 48 26 42 44 28 15 41
61 59 48 34 43 39 10 6 4 8 10 19 21 17 24 18 18 18 23 25 22 27 14 10 8 7 3 7 13 23 23 17 21 36 48 43 35 41 28 27 33 43 47 43 59 67 56 43 54 45 43 40 33 31
53 48 24 30 29 9 11 10 7 11 10 19 28 17 25 19 22 15 13 18 21 18 13 7 7 17 19 12 17 23 27 33 23 29 23 33 21 28 36 41 36 36 45 44 47 56 46 41 49 49 41 40 43 40
51 14 25 20 15 20 13 15 13 12 12 13 24 23 20 19 25 21 14 8 12 2 4 11 17 19 17 6 4 30 26 28 31 32 32 35 38 44 44 43 35 40 41 45 46 41 39 34 29 32 40 41 36 26
40 28 35 9 10 12 16 20 14 14 19 28 28 23 17 14 27 21 16 6 11 6 9 17 18 22 25 28 16 12 19 24 23 26 32 32 34 37 39 45 44 43 45 43 39 44 40 36 39 37 37 30 33 34
20 17 14 11 12 10 16 19 17 25 8 10 12 11 11 12 21 19 4 8 15 6 6 9 17 20 23 26 32 28 21 19 17 23 22 27 29 28 30 32 36 37 43 40 39 44 39 46 43 39 36 35 36 32
19 10 10 11 20 11 16 18 15 9 10 8 8 16 17 24 27 12 15 21 14 10 5 5 18 15 13 13 18 20 23 27 28 23 22 22 21 26 26 26 28 39 35 39 36 38 39 36 29 29 36 34 31 29
12 13 12 13 14 15 10 10 20 13 13 13 19 16 12 24 7 16 23 26 9 21 6 5 16 19 16 16 10 11 19 21 20 18 22 23 17 14 19 20 25 29 30 29 34 35 38 36 35 33 31 35 39 43
13 14 15 16 11 13 13 8 12 19 20 18 9 8 7 7 15 14 16 14 14 4 5 6 7 15 18 18 19 17 16 20 21 18 16 21 19 19 18 18 19 22 25 26 28 34 31 30 31 28 30 35 38 34
12 14 23 28 32 21 11 19 23 9 8 7 9 15 6 8 10 10 12 4 1 5 8 10 10 15 12 17 19 19 19 20 16 11 13 12 11 10 13 13 12 10 18 17 21 25 30 32 30 28 27 25 28 32
24 16 24 34 30 35 27 21 16 12 11 19 19 13 9 11 9 14 9 4 13 12 17 21 24 27 25 15 11 19 23 21 21 18 16 12 6 5 4 5 10 18 18 23 21 15 18 24 24 29 22 21 21 18
22 24 30 27 42 32 37 24 28 30 27 27 16 17 26 35 31 25 20 20 23 28 27 28 25 22 22 25 15 11 15 19 18 17 15 7 13 8 10 7 9 10 10 16 22 21 15 15 13 16 16 17 18 19
31 39 31 37 34 32 40 28 29 34 37 41 39 32 28 28 27 21 24 26 27 28 26 22 23 28 32 31 18 14 14 3 5 8 12 9 6 4 6 9 10 10 10 9 8 11 13 12 12 16 15 13 12 14
22 28 38 39 31 33 37 37 39 39 37 34 29 29 30 34 32 30 29 29 24 21 18 21 20 20 13 15 11 4 6 1 5 6 11 5 9 9 11 12 11 10 9 8 8 9 6 8 9 10 13 14 14 12
30 40 30 26 26 36 32 35 37 39 42 39 42 41 42 36 27 24 10 12 15 20 16 13 7 6 5 4 2 2 6 6 7 10 9 12 12 11 6 9 8 6 5 4 7 8 8 8 9 7 6 9 11 13
31 35 32 26 21 25 26 30 31 34 35 26 33 40 45 42 32 6 8 2 6 7 9 8 8 9 8 7 6 9 13 20 18 18 16 15 13 8 9 9 6 4 6 8 8 10 12 14 15 14 11 10 10 10
Wind_Direction_850mb
353 357 359 359 358 358 357 354 351 349 350 350 350 355 359 3 353 338 320 290 280 275 290 286 288 281 284 310 323 317 314 239 237 239 198 189 251 349 305 300 309 227 181 207 212 228 219 231 217 217 157 226 230 197
349 351 354 354 354 354 351 349 349 349 350 350 344 344 341 345 341 336 326 333 307 265 275 290 282 275 278 255 258 291 354 346 13 289 217 298 242 152 340 298 253 293 176 226 227 216 252 239 289 161 162 219 234 195
346 345 347 346 345 347 347 347 347 346 345 344 341 331 325 322 328 331 321 332 325 288 304 303 281 252 232 217 235 300 17 318 325 355 328 311 316 223 211 287 325 279 2 315 338 262 231 244 260 166 174 199 187 182
345 343 343 342 340 343 344 343 345 344 340 335 332 326 321 318 306 318 316 316 325 309 286 315 317 293 232 232 235 262 281 296 301 294 283 290 275 315 286 257 275 306 341 327 311 281 311 229 334 163 179 190 177 173
346 343 341 341 339 340 341 342 344 344 339 331 325 320 312 309 318 316 315 298 329 338 306 304 303 305 303 280 266 264 271 277 285 276 231 267 269 216 246 288 267 275 325 301 339 335 328 281 346 323 202 190 177 178
345 343 341 342 342 340 341 342 343 344 339 331 325 319 312 301 308 336 311 41 360 332 314 312 321 332 337 303 279 273 265 265 277 279 284 297 281 293 307 266 252 272 271 264 284 302 314 318 30 304 304 91 161 182
343 342 340 341 342 341 341 342 344 346 341 336 335 331 325 308 299 272 273 303 308 326 269 284 296 321 333 303 292 288 277 260 248 258 267 276 252 212 257 272 285 297 280 255 271 295 296 300 275 231 306 122 126 105
342 340 338 338 340 341 340 342 345 347 345 347 356 360 18 7 303 299 290 312 322 292 265 280 287 324 353 333 316 323 290 277 262 263 262 259 257 238 236 256 265 262 260 269 277 271 259 278 295 115 275 255 149 235
343 341 338 337 339 340 340 341 346 350 349 352 5 358 11 13 293 325 300 310 265 259 299 254 273 295 324 357 298 278 262 271 269 247 245 256 253 237 239 238 242 256 260 252 246 257 260 246 259 262 256 268 319 301
343 341 338 337 339 342 341 342 348 352 357 9 355 287 318 334 307 339 305 201 228 227 230 265 277 282 288 322 293 286 221 262 262 257 257 241 249 259 261 256 259 262 241 228 246 244 269 269 264 236 256 270 270 270
342 342 340 338 339 344 343 344 351 353 1 353 339 322 312 324 320 291 283 245 219 243 231 298 319 304 272 237 248 301 313 300 266 285 293 234 246 248 244 251 247 245 257 246 234 240 236 248 257 274 252 265 266 256
339 342 339 336 337 345 347 346 348 359 347 342 328 315 321 298 278 294 305 288 282 341 337 337 332 327 338 173 178 268 282 275 264 342 248 255 9 357 341 322 234 238 246 244 230 228 253 256 260 273 275 263 269 263
336 341 337 332 338 344 346 343 345 350 348 331 333 310 337 313 16 347 330 350 334 323 321 327 324 321 20 108 164 234 248 258 330 275 263 68 338 334 338 327 296 225 232 243 242 237 227 241 246 259 272 275 274 274
333 339 335 335 340 340 338 338 341 1 357 331 325 332 5 359 292 309 311 318 291 278 312 319 307 310 303 30 225 289 299 278 283 309 345 329 332 337 331 334 327 322 300 287 245 245 243 238 238 243 239 255 266 271
332 338 323 335 329 332 334 337 348 8 331 319 338 343 356 292 305 359 349 353 351 346 340 343 354 338 21 5 15 329 337 340 352 313 298 300 331 338 1 12 21 16 350 307 267 258 259 243 235 240 236 235 240 244
330 339 315 323 329 339 333 337 343 322 312 305 336 323 340 2 340 4 355 354 351 357 11 22 11 5 14 345 343 14 326 331 299 293 305 335 20 42 48 40 32 21 22 351 292 291 256 243 234 234 229 233 234 238
327 324 328 334 328 337 326 339 319 274 271 295 286 325 305 332 9 341 358 356 349 350 30 38 19 358 346 337 345 2 334 293 304 336 345 346 43 32 13 6 7 30 28 36 23 345 296 239 236 234 202 202 215 110
319 326 329 331 329 338 343 273 290 264 265 274 281 315 333 333 332 348 357 1 351 345 1 57 94 17 18 341 319 301 278 315 342 346 352 45 51 37 36 28 33 33 25 31 8 41 70 60 76 109 98 128 49 88
318 321 322 328 334 328 292 269 265 281 280 315 295 321 317 321 323 323 344 352 357 349 3 16 14 359 358 247 338 348 330 332 344 13 13 23 34 46 43 36 46 39 35 24 27 41 49 36 64 77 79 83 82 71
319 320 316 335 326 299 277 260 234 247 262 288 301 293 297 313 311 322 317 348 1 11 22 12 352 328 352 7 360 339 336 333 2 8 29 22 28 42 44 50 52 43 40 38 43 39 37 42 47 56 70 80 81 80
325 310 308 333 288 243 277 276 263 272 270 263 285 299 307 315 306 309 327 30 352 354 15 317 8 335 346 337 71 5 345 351 3 31 14 18 37 43 29 40 37 42 45 48 47 46 46 44 56 68 58 63 67 71
315 298 309 310 252 250 248 246 243 279 279 266 275 283 290 302 282 285 305 311 173 258 333 334 338 339 356 352 355 344 356 354 8 12 17 34 33 30 42 38 30 38 42 37 35 50 44 46 51 57 60 69 76 71
332 315 286 240 238 249 258 246 248 247 258 283 325 316 283 275 293 298 306 270 232 250 274 328 320 348 337 311 327 353 3 355 353 1 22 18 23 39 37 32 37 35 32 40 37 42 40 38 49 55 63 68 70 73
298 266 247 233 213 240 242 231 226 236 264 258 260 265 281 280 285 282 276 260 267 205 250 332 317 320 337 342 355 334 5 0 349 350 6 30 0 19 44 43 31 30 40 32 34 33 41 49 49 57 60 62 69 76
268 243 229 245 247 229 232 230 223 229 235 243 259 262 273 283 282 284 291 286 165 266 167 42 322 318 326 330 344 328 326 346 9 329 344 6 37 2 40 32 41 34 28 35 32 32 51 47 42 46 44 49 50 53
233 232 213 218 225 211 206 214 210 230 236 234 242 251 262 280 264 263 263 259 172 312 336 31 343 324 311 321 347 325 328 339 344 349 344 350 4 2 359 9 20 24 14 17 25 39 41 50 46 48 42 46 44 53
241 241 225 232 243 231 230 238 239 251 232 236 236 238 251 248 251 263 72 118 153 263 326 336 309 285 292 298 297 316 316 312 320 333 327 333 347 353 2 13 20 24 17 22 23 33 33 42 54 57 57 53 46 45
234 245 230 233 235 248 247 243 234 229 235 228 228 201 200 207 233 282 334 259 249 270 295 299 293 288 287 263 272 301 305 299 297 288 283 290 316 333 28 32 42 38 27 29 39 31 42 45 50 48 59 59 59 48
229 230 235 237 242 236 231 233 231 228 239 245 216 216 245 256 269 280 268 258 268 281 284 280 284 291 286 259 248 258 287 304 313 324 331 338 282 348 10 23 34 36 32 355 3 13 20 36 55 44 44 58 58 46
242 231 240 240 246 228 226 216 237 242 245 246 251 255 254 252 257 271 275 272 270 274 281 283 291 298 293 296 259 248 224 343 329 349 16 29 55 27 353 351 7 17 15 10 2 359 21 34 20 30 23 20 17 22
239 220 223 231 242 230 232 250 261 251 245 250 252 259 259 263 263 261 262 267 270 275 271 283 303 310 324 313 293 235 156 106 34 359 249 314 348 351 353 359 352 359 3 12 10 13 9 27 30 59 55 47 37 26
234 232 225 217 226 237 248 259 264 253 244 239 238 248 260 265 271 297 309 271 253 274 287 275 315 7 68 87 80 112 160 127 214 270 247 224 221 265 287 357 343 353 2 17 30 50 63 64 65 47 60 59 59 57
246 256 245 249 257 251 242 242 248 261 267 273 273 274 276 280 281 133 147 114 156 84 43 86 111 126 143 141 165 171 199 231 268 289 283 279 279 253 184 200 100 59 92 101 97 93 89 89 91 90 86 84 75 60